Printer-friendly version

IAU Minor Planet Center

Minor Planet Center

MPEC 2002-U47 : 2002 UQ3

The following Minor Planet Electronic Circular may be linked-to from your own Web pages, but must not otherwise be redistributed electronically.


Read MPEC 2002-U46 Read MPEC 2002-U48


M.P.E.C. 2002-U47                                Issued 2002 Oct. 30, 16:05 UT

     The Minor Planet Electronic Circulars contain information on unusual
         minor planets and routine data on comets.  They are published
   on behalf of Commission 20 of the International Astronomical Union by the
          Minor Planet Center, Smithsonian Astrophysical Observatory,
                          Cambridge, MA 02138, U.S.A.

             Prepared using the Tamkin Foundation Computer Network

                              MPC@CFA.HARVARD.EDU
          URL http://cfa-www.harvard.edu/iau/mpc.html  ISSN 1523-6714

                                   2002 UQ3

Observations:
     K02U03Q  C2002 10 05.33513 03 33 22.79 +34 48 50.8          18.8        704
     K02U03Q  C2002 10 05.35105 03 33 23.40 +34 48 39.7          19.2        704
     K02U03Q  C2002 10 05.36694 03 33 23.96 +34 48 27.7          19.4        704
     K02U03Q  C2002 10 05.38282 03 33 24.58 +34 48 16.5          19.6        704
     K02U03Q  C2002 10 05.39861 03 33 25.19 +34 48 05.0          19.3        704
     K02U03Q  C2002 10 12.32361 03 37 31.21 +32 58 56.3          18.7        704
     K02U03Q  C2002 10 12.33887 03 37 31.56 +32 58 38.5          19.0        704
     K02U03Q  C2002 10 12.35445 03 37 31.96 +32 58 20.0          19.1        704
     K02U03Q  C2002 10 12.37026 03 37 32.22 +32 58 00.3          19.2        704
     K02U03Q  C2002 10 12.38540 03 37 32.54 +32 57 42.5          19.1        704
     K02U03Q  C2002 10 29.28054 03 39 05.64 +22 31 03.8          17.4        678
     K02U03Q* C2002 10 29.28527 03 39 05.37 +22 30 47.8          16.9        678
     K02U03Q  C2002 10 29.29937 03 39 05.08 +22 29 54.7          17.3        678
     K02U03Q  C2002 10 29.30409 03 39 04.85 +22 29 38.2          17.2        678
     K02U03Q  C2002 10 29.31818 03 39 04.53 +22 28 45.2          17.0        678
     K02U03Q  C2002 10 29.32289 03 39 04.36 +22 28 27.7          17.1        678
     K02U03Q  C2002 10 29.41929 03 39 01.50 +22 22 28.4          16.7        678
     K02U03Q  C2002 10 29.42397 03 39 01.34 +22 22 10.7          17.2        678
     K02U03Q  C2002 10 29.42420 03 39 01.37 +22 22 10.8                      696
     K02U03Q  C2002 10 29.42545 03 39 01.33 +22 22 06.1                      696
     K02U03Q  C2002 10 29.42748 03 39 01.25 +22 21 57.8          16.9        678
     K02U03Q  C2002 10 29.46991 03 39 00.06 +22 19 18.8                      696
     K02U03Q  C2002 10 29.47101 03 38 59.99 +22 19 14.6                      696
     K02U03Q  C2002 10 29.51722 03 38 58.69 +22 16 19.0                      678
     K02U03Q  C2002 10 29.53501 03 38 58.21 +22 15 11.3          17.0        678
     K02U03Q  C2002 10 29.69678 03 38 55.67 +22 05 01.7                      349
     K02U03Q  C2002 10 29.69862 03 38 55.61 +22 04 55.1                      349
     K02U03Q  C2002 10 29.69999 03 38 55.60 +22 04 50.3                      349
     K02U03Q  C2002 10 29.70292 03 38 55.55 +22 04 38.4          16.5 V      349
     K02U03Q  C2002 10 29.78478 03 38 55.36 +21 59 20.0          16.4 R      620
     K02U03Q  C2002 10 29.79237 03 38 55.10 +21 58 50.1          16.8 R      620
     K02U03Q  C2002 10 29.79406 03 38 55.12 +21 58 40.7          16.3 R      620
     K02U03Q  C2002 10 29.79574 03 38 55.13 +21 58 35.2          16.3 R      620
     K02U03Q  C2002 10 29.94870 03 38 50.99 +21 48 53.4          16.5 R      176
     K02U03Q  C2002 10 29.95035 03 38 50.95 +21 48 47.0          16.5 R      176
     K02U03Q  C2002 10 29.95157 03 38 50.91 +21 48 42.4          16.6 R      176
     K02U03Q  C2002 10 29.95310 03 38 50.86 +21 48 36.5          16.6 R      176
     K02U03Q  C2002 10 29.95431 03 38 50.83 +21 48 31.8          16.5 R      176
     K02U03Q  C2002 10 29.95701 03 38 50.75 +21 48 21.4          16.6 R      176
     K02U03Q  C2002 10 30.18926 03 38 45.83 +21 33 14.0          16.5        678
     K02U03Q  C2002 10 30.19907 03 38 45.52 +21 32 35.9          16.4        678
     K02U03Q  C2002 10 30.29996 03 38 42.35 +21 26 01.6          16.6 R      854
     K02U03Q  C2002 10 30.30108 03 38 42.30 +21 25 57.3          16.7 R      854
     K02U03Q  C2002 10 30.30221 03 38 42.26 +21 25 53.0          16.7 R      854
     K02U03Q  C2002 10 30.30333 03 38 42.23 +21 25 48.4          16.6 R      854
     K02U03Q  C2002 10 30.30445 03 38 42.20 +21 25 43.9          16.6 R      854
     K02U03Q  C2002 10 30.33142 03 38 41.30 +21 23 55.6          16.6        678
     K02U03Q  C2002 10 30.33225 03 38 41.25 +21 23 52.6          16.7        678
     K02U03Q  C2002 10 30.33306 03 38 41.22 +21 23 49.2          16.7        678
     K02U03Q  C2002 10 30.36568 03 38 40.09 +21 21 41.4          16.5 R      926
     K02U03Q  C2002 10 30.36706 03 38 40.02 +21 21 36.2          16.5 R      926
     K02U03Q  C2002 10 30.36852 03 38 39.95 +21 21 30.4          16.4 R      926
     K02U03Q  C2002 10 30.37491 03 38 39.80 +21 21 04.7          17.4 V      333
     K02U03Q  C2002 10 30.37590 03 38 39.74 +21 21 01.0          17.2 V      333
     K02U03Q  C2002 10 30.37688 03 38 39.75 +21 20 57.2          17.0 V      333
     K02U03Q  C2002 10 30.37785 03 38 39.68 +21 20 53.3          17.2 V      333
     K02U03Q  C2002 10 30.37887 03 38 39.64 +21 20 49.0          17.5 V      333

Observer details:
176 Observatori Astronomic de Consell.  Observers A. Lopez, R. Pacheco.  0.41-m
    reflector + CCD.
333 Desert Eagle Observatory.  Observer W. K. Y. Yeung.  0.45-m reflector
    + CCD.
349 Ageo.  Observer K. Kadota.  0.18-m f/5.5 reflector + CCD, 0.25-m f/5.0
    reflector + CCD.
620 Observatorio Astronomico de Mallorca.  Observers F. Serra, M. Blasco.
    R. Pacheco.  0.40-m f/2.0 Schmidt + CCD.
678 Fountain Hills.  Observer C. W. Juels, P. R. Holvorcem.  Measurer
    C. W. Juels.  0.20-m f/4.8 reflector + CCD.
696 Whipple Observatory, Mt. Hopkins.  Observers P. Berlind, T. B. Spahr.
    Measurer T. B. Spahr.  1.2-m reflector + CCD.
704 Lincoln Laboratory ETS, New Mexico.  Observers M. Blythe, F. Shelly,
    M. Bezpalko, R. Huber, L. Manguso, S. Adams, D. Torres, T. Brothers,
    S. Partridge.  Measurers J. Stuart, R. Sayer, J. B. Evans, H. Viggh.  1.0-m
    f/2.15 reflector + CCD.
854 Sabino Canyon Observatory, Tucson.  Observer J. E. McGaha.  0.30-m f/10
    Schmidt-Cassegrain + CCD.
926 Tenagra II Observatory.  Observers P. R. Holvorcem, M. Schwartz.
    Measurer P. R. Holvorcem.  0.81-m f/7 Ritchey-Chretien + CCD.

Orbital elements:
2002 UQ3
Epoch 2002 Oct. 13.0 TT = JDT 2452560.5                 MPC
M 315.73365              (2000.0)            P               Q
n   0.43683804     Peri.  280.76373     -0.72343569     -0.60711392
a   1.7202402      Node   222.98430     +0.64925184     -0.76016582
e   0.5621726      Incl.   28.82458     -0.23476126     -0.23143165
P   2.26           H   17.4           G   0.15
From 56 observations 2002 Oct. 5-30.

